Regional & State Weather Roundups


784 
ASUS44 KFWD 181015
RWRTX 
NORTH TEXAS HOURLY WEATHER ROUNDUP
NATIONAL WEATHER SERVICE FORT WORTH TX
400 AM CST SUN NOV 18 2018
NOTE: "FAIR" INDICATES FEW OR NO CLOUDS BELOW 12,000 FEET WITH NO
SIGNIFICANT WEATHER AND/OR OBSTRUCTIONS TO VISIBILITY.
TXZ118-119-181100-
DALLAS/FORT WORTH METROPLEX
  
CITY           SKY/WX    TMP DP  RH WIND       PRES   REMARKS
DFW AIRPORT    CLOUDY    44  36  73 NW17      30.19R WCI  36          
DALLAS LOVE    CLOUDY    46  38  73 NW15      30.20R WCI  40          
FTW MEACHAM    CLOUDY    41  36  82 NW14G26   30.22R WCI  33          
DAL-EXECUTIVE  CLOUDY    44  37  76 NW14      30.19R WCI  37          
FTW-ALLIANCE   CLOUDY    42  35  76 NW15G24   30.23R WCI  34          
FTW-NAS-JRB    CLOUDY    44  35  70 NW18G25   30.23  WCI  36          
FTW-SPINKS     CLOUDY    44  37  77 NW15      30.23R WCI  37          
ARLINGTON      MOCLDY    44  38  79 NW16      30.21R WCI  37          
GRAND PRAIRIE  CLOUDY    44  36  74 NW7G18    30.23R WCI  40          
ADDISON        CLOUDY    45  37  74 NW10G17   30.22R                  
MESQUITE       CLOUDY    47  41  80 NW13      30.19R                  
LANCASTER      CLOUDY    45  38  77 NW14G23   30.20R WCI  39          
$$
TXZ091>094-102>105-117-120-121-131>134-181100-
NORTH CENTRAL TEXAS
  
CITY           SKY/WX    TMP DP  RH WIND       PRES   REMARKS
SHRMAN/DENISON CLOUDY    44  37  77 NW15      30.20R WCI  37          
GAINESVILLE    CLOUDY    40  35  83 NW15      30.23R WCI  32          
BOWIE          CLOUDY    37  34  90 NW13      30.24R FOG     WCI  29  
BRIDGEPORT     CLOUDY    39  35  84 NW12G17   30.28R WCI  32          
DECATUR        CLOUDY    38  34  84 NW10G18   30.23R WCI  32          
DENTON         CLOUDY    42  35  76 NW16      30.22R WCI  34          
MCKINNEY       CLOUDY    47  39  74 NW17      30.18R                  
BONHAM         CLOUDY    44  38  79 N9        30.17R WCI  39          
GREENVILLE     CLOUDY    54  50  87 W8        30.15R                  
ROCKWALL       CLOUDY    51  45  77 W15G21    30.18R                  
TERRELL        CLOUDY    50  43  77 W15       30.16R                  
WAXAHACHIE     CLOUDY    44  39  81 NW14G22   30.20R WCI  37          
CLEBURNE       CLOUDY    43  37  81 NW15G23   30.23R WCI  35          
GRANBURY       CLOUDY    43  37  77 NW14G21   30.26R WCI  36          
$$
TXZ083>090-098>101-113>116-127>130-139>142-154-155-181100-
WESTERN NORTH TEXAS
  
CITY           SKY/WX    TMP DP  RH WIND       PRES   REMARKS
WICHITA FALLS  CLOUDY    36  32  85 N17       30.29R WCI  26          
WF-KICKAPOO    CLOUDY    37  32  81 N14       30.31R WCI  28          
VERNON           N/A    N/A N/A N/A MISG        N/A                   
ABILENE        CLOUDY    38  33  82 N15       30.28R WCI  29          
ABILENE-DYESS  CLOUDY    37  28  69 N17         N/A  WCI  27          
GRAHAM         CLOUDY    37  34  89 NW8G16    30.27R WCI  31          
CISCO          CLOUDY    37  34  87 N13G21    30.25R WCI  29          
EASTLAND       CLOUDY    37  33  84 N13G18    30.26R WCI  29          
RANGER         CLOUDY    38  34  84 N9G16     30.26R WCI  32          
MINERAL WELLS  CLOUDY    40  33  76 N17       30.24R WCI  31          
STEPHENVILLE   CLOUDY    40  34  80 NW20      30.25R WCI  31          
COMANCHE       CLOUDY    40  36  85 N16G25    30.25R WCI  32          
BROWNWOOD      CLOUDY    41  34  75 N12G21    30.25R WCI  34          
COLEMAN        CLOUDY    39  34  80 N15G24    30.25R WCI  31          
BRADY          CLOUDY    39  36  87 N16       30.23R WCI  30          
$$
TXZ143>147-156>162-174-175-181100-
CENTRAL TEXAS
  
CITY           SKY/WX    TMP DP  RH WIND       PRES   REMARKS
WACO           CLOUDY    48  39  71 NW14      30.19R                  
WACO-MCGREGOR  CLOUDY    47  41  80 NW14      30.21R                  
HILLSBORO      CLOUDY    46  42  85 NW13G23   30.20R                  
CORSICANA      CLOUDY    51  44  77 NW13      30.18R                  
MEXIA          CLOUDY    52  46  79 NW14G20   30.17R                  
HEARNE         MOCLDY    49  46  88 CALM      30.14R                  
CAMERON        CLOUDY    55  53  91 CALM      30.14R                  
TEMPLE         CLOUDY    51  44  77 NW15      30.18R                  
KILLEEN        CLOUDY    46  39  77 NW15      30.17R WCI  39          
KILLEEN-SKYLRK CLOUDY    48  40  73 N13G21    30.19R                  
FORT HOOD      CLOUDY    47  40  75 N16       30.15R                  
GATESVILLE     CLOUDY    46  37  71 NW12      30.22R                  
HAMILTON       CLOUDY    42  38  88 N13G25    30.22R WCI  35          
LAMPASAS       CLOUDY    45  38  78 N12       30.19R WCI  39          
$$
TXZ095>097-106>112-122>126-135>138-148>153-164>167-181100-
EAST TEXAS
  
CITY           SKY/WX    TMP DP  RH WIND       PRES   REMARKS
PARIS          CLOUDY    52  52 100 CALM      30.13F                  
SULPHUR SPRNGS RAIN      56  55  96 SW7       30.15R                  
MOUNT PLEASANT MOCLDY    55  49  82 CALM      30.14R                  
GILMER         MOCLDY    53  49  87 CALM      30.13S                  
MINEOLA        CLOUDY    55  52  88 W6        30.14R                  
TYLER          CLOUDY    57  50  77 S10       30.12R                  
LONGVIEW       FAIR      51  51 100 E3        30.13S                  
MARSHALL       CLOUDY    50  48  94 CALM      30.17S                  
ATHENS         LGT RAIN  55  52  88 W5        30.14R                  
PALESTINE      MOCLDY    57  54  88 S5        30.15S                  
JACKSONVILLE   FAIR      54  51  89 S9        30.15S                  
HENDERSON      FAIR      52  49  89 MISG      30.15S                  
NACOGDOCHES      N/A     53  51  93 SE5       30.16S                  
LUFKIN         FAIR      51  49  92 CALM      30.15S                  
$$
SUPPLEMENTAL OBSERVATIONS (NWS FORT WORTH AREA)
  
CITY           SKY/WX    TMP DP  RH WIND       PRES   REMARKS
DENISON DAM      N/A     45  37  76 N15         N/A  WCI  38          
CADDO GRASSLND   N/A     46  43  87 NW3         N/A                   
LBJ GRASSLAND    N/A     37  32  81 NW7G17      N/A  WCI  32          
POSSUM KINGDOM   N/A     37  32  81 NW14        N/A  WCI  29          
GRANBURY         N/A     43  36  75 NW18G25     N/A  WCI  34          
COMANCHE         N/A     39  34  81 N16G24      N/A  WCI  30          
MCGREGOR         N/A     46  37  71 NW12        N/A                   
TEMPLE           N/A     52  43  71 NW14G22     N/A                   
LAKE LIMESTONE   N/A     55  54  94 CALM        N/A                   
ATHENS           N/A     57  52  82 W3G12       N/A                   
PALESTINE        N/A     57  52  82 SE3         N/A                   
$$
SUPPLEMENTAL OBSERVATIONS (NWS NORMAN AREA)
  
CITY           SKY/WX    TMP DP  RH WIND       PRES   REMARKS
GOODLETT         N/A     31  26  80 N17       30.33  WCI  20          
ODELL            N/A     33  28  83 NW14      30.34  WCI  23          
CROWELL          N/A     34  28  79 N14       30.34  WCI  25          
KNOX CITY        N/A     35  27  74 N13       30.34  WCI  26          
SEYMOUR          N/A     35  29  79 NW14      30.32  WCI  26          
MILLERS CREEK    N/A     36  30  80 N15         N/A  WCI  26          
$$
SUPPLEMENTAL OBSERVATIONS (NWS SAN ANGELO AREA)
  
CITY           SKY/WX    TMP DP  RH WIND       PRES   REMARKS
WEINERT          N/A     35  27  74 N17       30.33  WCI  24          
HASKELL          N/A     34  28  77 N17       30.31  WCI  23          
THROCKMORTON     N/A     35  31  82 NW12      30.32  WCI  27          
STAMFORD         N/A     36  30  80 N16       30.33  WCI  26          
CLYDE            N/A     35  31  87 NW16      30.28  WCI  25          
HAMBY            N/A     37  32  81 N12         N/A  WCI  30          
IVIE RESERVOIR   N/A     41  34  75 N13         N/A  WCI  34          
COLORADO BEND    N/A     45  37  76 N9G18       N/A  WCI  40          
$$
SUPPLEMENTAL OBSERVATIONS (NWS SHREVEPORT AREA)
  
CITY           SKY/WX    TMP DP  RH WIND       PRES   REMARKS
TEXARKANA        N/A     48  46  93 CALM        N/A                   
LINDEN           N/A     52  48  87 CALM        N/A                   
CADDO LAKE       N/A     48  46  93 CALM        N/A                   
LUFKIN           N/A     54  48  82 MISG        N/A                   
N SABINE NF      N/A     52  50  93 MISG        N/A                   
$$
SUPPLEMENTAL OBSERVATIONS ARE A COLLECTION OF AUTOMATED INSTRUMENTS
THAT ARE MAINTAINED BY A VARIETY OF FEDERAL AND STATE AGENCIES. 
CERTAIN ELEMENTS...SUCH AS HUMIDITY VALUES AND SUSTAINED WIND 
SPEEDS...MAY BE APPROXIMATED.
  

785 
ASUS44 KFWD 181015
RWRFWD
NORTH TEXAS HOURLY WEATHER ROUNDUP
NATIONAL WEATHER SERVICE FORT WORTH TX
400 AM CST SUN NOV 18 2018
NOTE: "FAIR" INDICATES FEW OR NO CLOUDS BELOW 12,000 FEET WITH NO
SIGNIFICANT WEATHER AND/OR OBSTRUCTIONS TO VISIBILITY.
TXZ118-119-181100-
DALLAS/FORT WORTH METROPLEX
  
CITY           SKY/WX    TMP DP  RH WIND       PRES   REMARKS
DFW AIRPORT    CLOUDY    44  36  73 NW17      30.19R WCI  36          
DALLAS LOVE    CLOUDY    46  38  73 NW15      30.20R WCI  40          
FTW MEACHAM    CLOUDY    41  36  82 NW14G26   30.22R WCI  33          
DAL-EXECUTIVE  CLOUDY    44  37  76 NW14      30.19R WCI  37          
FTW-ALLIANCE   CLOUDY    42  35  76 NW15G24   30.23R WCI  34          
FTW-NAS-JRB    CLOUDY    44  35  70 NW18G25   30.23  WCI  36          
FTW-SPINKS     CLOUDY    44  37  77 NW15      30.23R WCI  37          
ARLINGTON      MOCLDY    44  38  79 NW16      30.21R WCI  37          
GRAND PRAIRIE  CLOUDY    44  36  74 NW7G18    30.23R WCI  40          
ADDISON        CLOUDY    45  37  74 NW10G17   30.22R                  
MESQUITE       CLOUDY    47  41  80 NW13      30.19R                  
LANCASTER      CLOUDY    45  38  77 NW14G23   30.20R WCI  39          
$$
TXZ091>094-102>105-117-120-121-131>134-181100-
NORTH CENTRAL TEXAS
  
CITY           SKY/WX    TMP DP  RH WIND       PRES   REMARKS
SHRMAN/DENISON CLOUDY    44  37  77 NW15      30.20R WCI  37          
GAINESVILLE    CLOUDY    40  35  83 NW15      30.23R WCI  32          
BOWIE          CLOUDY    37  34  90 NW13      30.24R FOG     WCI  29  
BRIDGEPORT     CLOUDY    39  35  84 NW12G17   30.28R WCI  32          
DECATUR        CLOUDY    38  34  84 NW10G18   30.23R WCI  32          
DENTON         CLOUDY    42  35  76 NW16      30.22R WCI  34          
MCKINNEY       CLOUDY    47  39  74 NW17      30.18R                  
BONHAM         CLOUDY    44  38  79 N9        30.17R WCI  39          
GREENVILLE     CLOUDY    54  50  87 W8        30.15R                  
ROCKWALL       CLOUDY    51  45  77 W15G21    30.18R                  
TERRELL        CLOUDY    50  43  77 W15       30.16R                  
WAXAHACHIE     CLOUDY    44  39  81 NW14G22   30.20R WCI  37          
CLEBURNE       CLOUDY    43  37  81 NW15G23   30.23R WCI  35          
GRANBURY       CLOUDY    43  37  77 NW14G21   30.26R WCI  36          
$$
TXZ083>090-098>101-113>116-127>130-139>142-154-155-181100-
WESTERN NORTH TEXAS
  
CITY           SKY/WX    TMP DP  RH WIND       PRES   REMARKS
WICHITA FALLS  CLOUDY    36  32  85 N17       30.29R WCI  26          
WF-KICKAPOO    CLOUDY    37  32  81 N14       30.31R WCI  28          
VERNON           N/A    N/A N/A N/A MISG        N/A                   
ABILENE        CLOUDY    38  33  82 N15       30.28R WCI  29          
ABILENE-DYESS  CLOUDY    37  28  69 N17         N/A  WCI  27          
GRAHAM         CLOUDY    37  34  89 NW8G16    30.27R WCI  31          
CISCO          CLOUDY    37  34  87 N13G21    30.25R WCI  29          
EASTLAND       CLOUDY    37  33  84 N13G18    30.26R WCI  29          
RANGER         CLOUDY    38  34  84 N9G16     30.26R WCI  32          
MINERAL WELLS  CLOUDY    40  33  76 N17       30.24R WCI  31          
STEPHENVILLE   CLOUDY    40  34  80 NW20      30.25R WCI  31          
COMANCHE       CLOUDY    40  36  85 N16G25    30.25R WCI  32          
BROWNWOOD      CLOUDY    41  34  75 N12G21    30.25R WCI  34          
COLEMAN        CLOUDY    39  34  80 N15G24    30.25R WCI  31          
BRADY          CLOUDY    39  36  87 N16       30.23R WCI  30          
$$
TXZ143>147-156>162-174-175-181100-
CENTRAL TEXAS
  
CITY           SKY/WX    TMP DP  RH WIND       PRES   REMARKS
WACO           CLOUDY    48  39  71 NW14      30.19R                  
WACO-MCGREGOR  CLOUDY    47  41  80 NW14      30.21R                  
HILLSBORO      CLOUDY    46  42  85 NW13G23   30.20R                  
CORSICANA      CLOUDY    51  44  77 NW13      30.18R                  
MEXIA          CLOUDY    52  46  79 NW14G20   30.17R                  
HEARNE         MOCLDY    49  46  88 CALM      30.14R                  
CAMERON        CLOUDY    55  53  91 CALM      30.14R                  
TEMPLE         CLOUDY    51  44  77 NW15      30.18R                  
KILLEEN        CLOUDY    46  39  77 NW15      30.17R WCI  39          
KILLEEN-SKYLRK CLOUDY    48  40  73 N13G21    30.19R                  
FORT HOOD      CLOUDY    47  40  75 N16       30.15R                  
GATESVILLE     CLOUDY    46  37  71 NW12      30.22R                  
HAMILTON       CLOUDY    42  38  88 N13G25    30.22R WCI  35          
LAMPASAS       CLOUDY    45  38  78 N12       30.19R WCI  39          
$$
TXZ095>097-106>112-122>126-135>138-148>153-164>167-181100-
EAST TEXAS
  
CITY           SKY/WX    TMP DP  RH WIND       PRES   REMARKS
PARIS          CLOUDY    52  52 100 CALM      30.13F                  
SULPHUR SPRNGS RAIN      56  55  96 SW7       30.15R                  
MOUNT PLEASANT MOCLDY    55  49  82 CALM      30.14R                  
GILMER         MOCLDY    53  49  87 CALM      30.13S                  
MINEOLA        CLOUDY    55  52  88 W6        30.14R                  
TYLER          CLOUDY    57  50  77 S10       30.12R                  
LONGVIEW       FAIR      51  51 100 E3        30.13S                  
MARSHALL       CLOUDY    50  48  94 CALM      30.17S                  
ATHENS         LGT RAIN  55  52  88 W5        30.14R                  
PALESTINE      MOCLDY    57  54  88 S5        30.15S                  
JACKSONVILLE   FAIR      54  51  89 S9        30.15S                  
HENDERSON      FAIR      52  49  89 MISG      30.15S                  
NACOGDOCHES      N/A     53  51  93 SE5       30.16S                  
LUFKIN         FAIR      51  49  92 CALM      30.15S                  
$$
SUPPLEMENTAL OBSERVATIONS (NWS FORT WORTH AREA)
  
CITY           SKY/WX    TMP DP  RH WIND       PRES   REMARKS
DENISON DAM      N/A     45  37  76 N15         N/A  WCI  38          
CADDO GRASSLND   N/A     46  43  87 NW3         N/A                   
LBJ GRASSLAND    N/A     37  32  81 NW7G17      N/A  WCI  32          
POSSUM KINGDOM   N/A     37  32  81 NW14        N/A  WCI  29          
GRANBURY         N/A     43  36  75 NW18G25     N/A  WCI  34          
COMANCHE         N/A     39  34  81 N16G24      N/A  WCI  30          
MCGREGOR         N/A     46  37  71 NW12        N/A                   
TEMPLE           N/A     52  43  71 NW14G22     N/A                   
LAKE LIMESTONE   N/A     55  54  94 CALM        N/A                   
ATHENS           N/A     57  52  82 W3G12       N/A                   
PALESTINE        N/A     57  52  82 SE3         N/A                   
$$
SUPPLEMENTAL OBSERVATIONS (NWS NORMAN AREA)
  
CITY           SKY/WX    TMP DP  RH WIND       PRES   REMARKS
GOODLETT         N/A     31  26  80 N17       30.33  WCI  20          
ODELL            N/A     33  28  83 NW14      30.34  WCI  23          
CROWELL          N/A     34  28  79 N14       30.34  WCI  25          
KNOX CITY        N/A     35  27  74 N13       30.34  WCI  26          
SEYMOUR          N/A     35  29  79 NW14      30.32  WCI  26          
MILLERS CREEK    N/A     36  30  80 N15         N/A  WCI  26          
$$
SUPPLEMENTAL OBSERVATIONS (NWS SAN ANGELO AREA)
  
CITY           SKY/WX    TMP DP  RH WIND       PRES   REMARKS
WEINERT          N/A     35  27  74 N17       30.33  WCI  24          
HASKELL          N/A     34  28  77 N17       30.31  WCI  23          
THROCKMORTON     N/A     35  31  82 NW12      30.32  WCI  27          
STAMFORD         N/A     36  30  80 N16       30.33  WCI  26          
CLYDE            N/A     35  31  87 NW16      30.28  WCI  25          
HAMBY            N/A     37  32  81 N12         N/A  WCI  30          
IVIE RESERVOIR   N/A     41  34  75 N13         N/A  WCI  34          
COLORADO BEND    N/A     45  37  76 N9G18       N/A  WCI  40          
$$
SUPPLEMENTAL OBSERVATIONS (NWS SHREVEPORT AREA)
  
CITY           SKY/WX    TMP DP  RH WIND       PRES   REMARKS
TEXARKANA        N/A     48  46  93 CALM        N/A                   
LINDEN           N/A     52  48  87 CALM        N/A                   
CADDO LAKE       N/A     48  46  93 CALM        N/A                   
LUFKIN           N/A     54  48  82 MISG        N/A                   
N SABINE NF      N/A     52  50  93 MISG        N/A                   
$$
SUPPLEMENTAL OBSERVATIONS ARE A COLLECTION OF AUTOMATED INSTRUMENTS
THAT ARE MAINTAINED BY A VARIETY OF FEDERAL AND STATE AGENCIES. 
CERTAIN ELEMENTS...SUCH AS HUMIDITY VALUES AND SUSTAINED WIND 
SPEEDS...MAY BE APPROXIMATED.